TimeEDT,TemperatureF,Dew PointF,Humidity,Sea Level PressureIn,VisibilityMPH,Wind Direction,Wind SpeedMPH,Gust SpeedMPH,PrecipitationIn,Events,Conditions,WindDirDegrees,DateUTC
12:54 AM,46.9,28.9,50,30.01,10.0,Calm,Calm,-,N/A,,Clear,0,2013-05-13 04:54:00
1:54 AM,44.1,30.9,60,30.01,-9999.0,Calm,Calm,-,N/A,,Clear,0,2013-05-13 05:54:00
2:54 AM,42.1,33.1,70,30.00,-9999.0,Calm,Calm,-,N/A,,Clear,0,2013-05-13 06:54:00
3:54 AM,42.1,30.9,65,30.01,-9999.0,WSW,4.6,-,N/A,,Clear,250,2013-05-13 07:54:00
4:54 AM,42.1,32.0,67,30.03,-9999.0,SW,3.5,-,N/A,,Clear,220,2013-05-13 08:54:00
5:54 AM,42.1,30.0,62,30.04,-9999.0,WNW,6.9,-,N/A,,Clear,290,2013-05-13 09:54:00
6:54 AM,45.0,32.0,60,30.06,9.0,West,4.6,-,N/A,,Clear,260,2013-05-13 10:54:00
7:54 AM,48.9,30.9,50,30.08,9.0,WNW,6.9,-,N/A,,Clear,300,2013-05-13 11:54:00
8:54 AM,50.0,28.0,43,30.09,9.0,NW,10.4,24.2,N/A,,Clear,320,2013-05-13 12:54:00
9:54 AM,51.1,30.0,44,30.08,9.0,West,6.9,18.4,N/A,,Mostly Cloudy,270,2013-05-13 13:54:00
10:54 AM,54.0,30.9,41,30.08,10.0,West,11.5,18.4,N/A,,Mostly Cloudy,280,2013-05-13 14:54:00
11:54 AM,52.0,27.0,38,30.09,10.0,West,13.8,23.0,N/A,,Mostly Cloudy,260,2013-05-13 15:54:00
12:54 PM,53.1,27.0,37,30.08,10.0,NW,16.1,21.9,N/A,,Mostly Cloudy,310,2013-05-13 16:54:00
1:54 PM,53.1,26.1,35,30.08,10.0,WNW,17.3,29.9,N/A,,Mostly Cloudy,290,2013-05-13 17:54:00
2:54 PM,54.0,28.0,37,30.07,10.0,WNW,10.4,20.7,N/A,,Mostly Cloudy,290,2013-05-13 18:54:00
4:54 PM,53.1,21.9,30,30.05,10.0,West,13.8,25.3,N/A,,Scattered Clouds,280,2013-05-13 20:54:00
5:54 PM,53.1,21.0,29,30.05,10.0,WNW,16.1,27.6,N/A,,Clear,290,2013-05-13 21:54:00
6:54 PM,53.1,21.0,29,30.05,10.0,WNW,17.3,24.2,N/A,,Partly Cloudy,300,2013-05-13 22:54:00
7:54 PM,51.8,21.2,30,30.07,10.0,NW,5.8,-,N/A,,Partly Cloudy,310,2013-05-13 23:54:00
8:54 PM,46.9,25.0,42,30.09,10.0,North,4.6,-,N/A,,Clear,350,2013-05-14 00:54:00
9:54 PM,46.9,27.0,46,30.13,10.0,North,6.9,-,N/A,,Clear,10,2013-05-14 01:54:00
10:54 PM,45.0,28.9,53,30.14,10.0,North,6.9,-,N/A,,Clear,350,2013-05-14 02:54:00
11:54 PM,44.1,30.0,58,30.15,10.0,North,6.9,-,N/A,,Clear,360,2013-05-14 03:54:00